Tracking 19247 objects as of 24-Sep-2018
HD Live streaming from Space Station
objects crossing your sky now

ARIANE 5 R/B

Track ARIANE 5 R/B now!


NORAD ID: 42816
Int'l Code: 2017-040C
Perigee: 271.3 km
Apogee: 35,652.0 km
Inclination: 2.7 °
Period: 629.6 minutes
Semi major axis: 24332 km
RCS: Unknown
Launch date: June 28, 2017
Source: France (FR)
Launch site: FRENCH GUIANA (FRGUI)

Note: This is a ROCKET BODY
aabbcc
Your satellite tracking list
Your tracking list is empty




NASA's NSSDC Master Catalog

Two Line Element Set (TLE):
1 42816U 17040C   18266.64654610 +.00000151 +00000-0 +12016-3 0  9998
2 42816 002.6696 251.9393 7270198 173.1601 208.6047 02.28727780010323
Source of the keplerian elements: AFSPC